This demonstration page uses our WeatherBlox Daily Observations layout. Learn more.

Left ArrowRight Arrow

36.17497, -115.13722

Hourly Observations for August 17, 2017

Temp ( °F °C ) Dew Point ( °F °C ) Humidity (%) Winds ( mph kmh ) Pressure ( in mb ) Visibility ( mi km ) Precip ( " mm )
12:53 am 00:53 Clear 81 27.2 41 5 24 24 NW 6 9 29.88 1012 10 16.0934 N/A
1:53 am 01:53 Clear 79 26.1 41 5 26 26 N 5 7 29.88 1012 10 16.0934 N/A
2:53 am 02:53 Clear 78 25.6 45 7.2 31 31 NNW 5 7 29.89 1012 10 16.0934 N/A
3:53 am 03:53 Clear 77 25 43 6.1 30 30 NW 5 7 29.9 1013 10 16.0934 N/A
4:53 am 04:53 Clear 77 25 44 6.7 31 31 N N/A 29.91 1013 10 16.0934 N/A
5:53 am 05:53 Clear 76 24.4 44 6.7 32 32 N 5 7 29.93 1013 10 16.0934 N/A
6:53 am 06:53 Sunny 77 25 44 6.7 31 31 N N/A 29.94 1014 10 16.0934 N/A
7:53 am 07:53 Sunny 81 27.2 44 6.7 27 27 N N/A 29.96 1015 10 16.0934 N/A
8:53 am 08:53 Sunny 87 30.6 41 5 20 20 NNE 6 9 29.97 1015 10 16.0934 N/A
9:53 am 09:53 Sunny 89 31.7 38 3.3 16 16 N N/A 29.98 1015 10 16.0934 N/A
10:53 am 10:53 Sunny 93 33.9 34 1.1 12 12 ESE 6 9 29.97 1015 10 16.0934 N/A
11:53 am 11:53 Sunny 94 34.4 37 2.8 14 14 VRB 3 6 29.96 1015 10 16.0934 N/A
12:53 pm 12:53 Sunny 96 35.6 37 2.8 13 13 S 7 11 29.95 1014 10 16.0934 N/A
1:53 pm 13:53 Sunny 98 36.7 37 2.8 12 12 VRB 5 7 29.93 1014 10 16.0934 N/A
2:53 pm 14:53 Sunny 98 36.7 37 2.8 12 12 E 6 9 29.91 1013 10 16.0934 N/A
3:53 pm 15:53 Sunny 99 37.2 37 2.8 12 12 SSE 10 17 29.89 1012 10 16.0934 N/A
4:53 pm 16:53 Sunny 98 36.7 37 2.8 12 12 VRB 6 9 29.87 1012 10 16.0934 N/A
5:53 pm 17:53 Sunny 99 37.2 36 2.2 11 11 SSE 8 13 29.86 1011 10 16.0934 N/A
6:53 pm 18:53 Sunny 98 36.7 37 2.8 12 12 SSW 7 11 29.86 1011 10 16.0934 N/A
7:53 pm 19:53 Clear 96 35.6 38 3.3 13 13 SSW 5 7 29.87 1012 10 16.0934 N/A
8:53 pm 20:53 Clear 95 35 40 4.4 15 15 SSW 3 6 29.88 1012 10 16.0934 N/A
9:53 pm 21:53 Clear 93 33.9 39 3.9 15 15 N N/A 29.9 1012 10 16.0934 N/A
10:53 pm 22:53 Clear 88 31.1 42 5.6 20 20 N 5 7 29.9 1013 10 16.0934 N/A
11:53 pm 23:53 Clear 86 30 41 5 20 20 NNW 3 6 29.9 1013 10 16.0934 N/A

Powered by AerisWeather